Regional Weather Roundup
Issued by NWS

Home | Current Version | Previous Version | Graphics & Text | Print | Product List | Glossary On
Versions: 1 2 3 4 5 6 7 8 9 10 11 12 13 14 15 16 17 18 19 20 21 22 23 24 25 26 27 28 29 30 31 32 33 34 35 36 37 38 39 40 41 42 43 44 45 46 47 48 49 50
778
ASUS45 KBOI 280010
RWRID

IDAHO REGIONAL WEATHER ROUNDUP
NATIONAL WEATHER SERVICE BOISE ID
600 PM MDT SAT AUG 27 2016

NOTE: "FAIR" INDICATES FEW OR NO CLOUDS BELOW 12000 FEET
WITH NO SIGNIFICANT WEATHER AND/OR OBSTRUCTIONS TO VISIBILITY

IDZ012-014-280100-
SOUTHWEST IDAHO


CITY           SKY/WX    TMP DP  RH WIND       PRES   REMARKS
BOISE          SUNNY     89  31  12 N7        29.85F
CALDWELL       SUNNY     90  41  18 NW7       29.83F
MOUNTAIN HOME  SUNNY     91  31  11 NE5       29.85F
$$

IDZ016-017-280100-
SOUTHCENTRAL IDAHO


CITY           SKY/WX    TMP DP  RH WIND       PRES   REMARKS
BURLEY         MOSUNNY   80  36  20 W8        29.96S
JEROME         MOSUNNY   84  33  16 W5        29.96F
TWIN FALLS     MOSUNNY   84  30  14 NW7       29.97S
$$

IDZ019>023-280100-
SOUTHEAST IDAHO


CITY           SKY/WX    TMP DP  RH WIND       PRES   REMARKS
IDAHO FALLS    SUNNY     81  30  15 S15G24    29.98F
POCATELLO      SUNNY     83  28  13 W16       29.99S
REXBURG        SUNNY     80  32  17 S16G25    29.98S
$$

IDZ006-010-011-018-031-032-280100-
CENTRAL IDAHO MOUNTAINS


CITY           SKY/WX    TMP DP  RH WIND       PRES   REMARKS
MCCALL         SUNNY     79  29  16 VRB6      29.99F
HAILEY         SUNNY     79  34  19 S9G16     30.00F
STANLEY          N/A     74  26  16 S8        30.08S
SALMON         SUNNY     84  34  16 CALM      29.80F
CHALLIS        MOSUNNY   82  24  12 W13G21    29.93S
$$

IDZ002-004-006-007-026-280100-
NORTHERN IDAHO


CITY           SKY/WX    TMP DP  RH WIND       PRES   REMARKS
LEWISTON       CLOUDY    89  42  19 W9        29.72R
LOWELL           N/A     85  49  28 CALM      29.69S
COEUR D`ALENE  CLOUDY    82  41  23 SW17G26   29.72R
MULLAN PASS    CLOUDY    67  36  31 VRB7G20   29.96S
$$




USA.gov is the U.S. government's official web portal to all federal, state and local government web resources and services.